Location: Drignac
(45.1667°N, 2.0333°E)
Time: 05:31:42
(UTC+00:00)

Okean 1-7 Rocket - Pass Details

Date: 29 March 2020
Orbit: 617 x 648 km, 82.5° (Epoch: 01 June)

Event Time Altitude Azimuth Distance (km) Brightness Sun altitude
Rises 18:52:56 0° 354° (N) 2,912 7.3 -7.2°
Reaches altitude 10° 18:55:12 10° 357° (N) 1,997 6.4 -7.6°
Maximum altitude 18:59:35 64° 79° (E) 691 3.6 -8.3°
Drops below altitude 10° 19:03:55 10° 161° (SSE) 1,975 5.8 -9.1°
Sets 19:06:09 0° 165° (SSE) 2,876 6.7 -9.4°
